When you browse on this site, cookies collect data to enhance your experience and personalize the content and advertising you see.
Visit our Privacy Policy to learn more. By continuing to use the site, you agree to this use of cookies and data.
  • en Suisse
  • Liste des pays
  • À 7 jours
  • Température de l'eau
  • Carte météo
  • Widgets météo
  • user-avatar
    Se connecter

    Météo par heure à Vatican

    Ce jour, 11 Décembre, Mercredi

    Heure Température Précipitation Vent Pression Humidité
    00:00 +9°C° 0 mm 8 m/s 759 mmHg 62%
    01:00 +7°C° 0 mm 8 m/s 759 mmHg 62%
    02:00 +8°C° 0 mm 7 m/s 759 mmHg 62%
    03:00 +8°C° 0 mm 7 m/s 759 mmHg 62%
    04:00 +7°C° 0 mm 6 m/s 758 mmHg 62%
    05:00 +7°C° 0 mm 6 m/s 758 mmHg 62%
    06:00 +7°C° 0 mm 6 m/s 758 mmHg 62%
    07:00 +5°C° 0 mm 6 m/s 758 mmHg 62%
    08:00 +7°C° 0 mm 6 m/s 758 mmHg 59%
    09:00 +7°C° 0 mm 5 m/s 758 mmHg 57%
    10:00 +8°C° 0 mm 4 m/s 758 mmHg 54%
    11:00 +10°C° 0 mm 4 m/s 757 mmHg 52%
    12:00 +11°C° 0 mm 4 m/s 757 mmHg 50%
    13:00 +12°C° 0 mm 3 m/s 757 mmHg 48%
    14:00 +11°C° 0 mm 3 m/s 756 mmHg 51%
    15:00 +11°C° 0 mm 3 m/s 756 mmHg 53%
    16:00 +12°C° 0 mm 2 m/s 756 mmHg 55%
    17:00 +10°C° 0 mm 3 m/s 756 mmHg 57%
    18:00 +10°C° 0 mm 3 m/s 756 mmHg 58%
    19:00 +9°C° 0 mm 3 m/s 756 mmHg 60%
    20:00 +9°C° 0 mm 3 m/s 756 mmHg 60%
    21:00 +8°C° 0 mm 3 m/s 756 mmHg 61%
    22:00 +8°C° 0 mm 2 m/s 755 mmHg 62%
    23:00 +8°C° 0 mm 2 m/s 755 mmHg 64%

    Demain, 12 Décembre, Jeudi

    Heure Température Précipitation Vent Pression Humidité
    00:00 +8°C° 0 mm 2 m/s 755 mmHg 66%
    01:00 +8°C° 0 mm 2 m/s 754 mmHg 68%
    02:00 +8°C° 0 mm 2 m/s 754 mmHg 69%
    03:00 +7°C° 0 mm 2 m/s 753 mmHg 70%
    04:00 +7°C° 0 mm 2 m/s 752 mmHg 72%
    05:00 +8°C° 0.4 mm 3 m/s 752 mmHg 72%
    06:00 +7°C° 0.4 mm 4 m/s 752 mmHg 72%
    07:00 +8°C° 0.4 mm 5 m/s 752 mmHg 72%
    08:00 +8°C° 0.8 mm 5 m/s 752 mmHg 74%
    09:00 +8°C° 0.8 mm 6 m/s 751 mmHg 76%
    10:00 +8°C° 0.8 mm 6 m/s 751 mmHg 78%
    11:00 +8°C° 0.2 mm 6 m/s 751 mmHg 77%
    12:00 +9°C° 0.2 mm 5 m/s 750 mmHg 75%
    13:00 +10°C° 0.2 mm 4 m/s 750 mmHg 74%
    14:00 +10°C° 0.2 mm 4 m/s 750 mmHg 73%
    15:00 +10°C° 0.2 mm 3 m/s 750 mmHg 73%
    16:00 +10°C° 0.2 mm 3 m/s 749 mmHg 72%
    17:00 +10°C° 0.1 mm 3 m/s 750 mmHg 74%
    18:00 +8°C° 0.1 mm 4 m/s 750 mmHg 76%
    19:00 +8°C° 0.1 mm 4 m/s 750 mmHg 78%
    20:00 +8°C° 0.1 mm 4 m/s 750 mmHg 77%
    21:00 +9°C° 0.1 mm 3 m/s 750 mmHg 76%
    22:00 +9°C° 0.1 mm 3 m/s 750 mmHg 75%
    23:00 +9°C° 0.1 mm 3 m/s 750 mmHg 74%

    Après-demain, 13 Décembre, Vendredi

    Heure Température Précipitation Vent Pression Humidité
    00:00 +8°C° 0.1 mm 3 m/s 750 mmHg 74%
    01:00 +8°C° 0.1 mm 3 m/s 750 mmHg 73%
    02:00 +8°C° 0.1 mm 3 m/s 750 mmHg 72%
    03:00 +8°C° 0.1 mm 3 m/s 749 mmHg 71%
    04:00 +8°C° 0.1 mm 2 m/s 749 mmHg 70%
    05:00 +8°C° 0 mm 3 m/s 749 mmHg 70%
    06:00 +8°C° 0 mm 3 m/s 748 mmHg 69%
    07:00 +7°C° 0 mm 4 m/s 748 mmHg 69%
    08:00 +8°C° 0.1 mm 5 m/s 747 mmHg 70%
    09:00 +9°C° 0.1 mm 6 m/s 747 mmHg 70%
    10:00 +10°C° 0.1 mm 7 m/s 746 mmHg 71%
    11:00 +10°C° 1.1 mm 8 m/s 745 mmHg 75%
    12:00 +10°C° 1.1 mm 9 m/s 744 mmHg 79%
    13:00 +11°C° 1.1 mm 10 m/s 743 mmHg 83%
    14:00 +10°C° 1 mm 12 m/s 742 mmHg 81%
    15:00 +12°C° 1 mm 13 m/s 740 mmHg 78%
    16:00 +13°C° 1 mm 15 m/s 739 mmHg 75%
    17:00 +13°C° 0.8 mm 16 m/s 738 mmHg 70%
    18:00 +13°C° 0.8 mm 16 m/s 738 mmHg 64%
    19:00 +11°C° 0.8 mm 16 m/s 737 mmHg 59%
    20:00 +11°C° 0.4 mm 16 m/s 737 mmHg 64%
    21:00 +10°C° 0.4 mm 16 m/s 737 mmHg 70%
    22:00 +9°C° 0.4 mm 16 m/s 737 mmHg 75%
    23:00 +7°C° 0.3 mm 16 m/s 738 mmHg 73%

    14 Décembre, Samedi

    Heure Température Précipitation Vent Pression Humidité
    00:00 +6°C° 0.3 mm 16 m/s 739 mmHg 70%
    01:00 +6°C° 0.3 mm 16 m/s 740 mmHg 67%
    02:00 +5°C° 0 mm 16 m/s 741 mmHg 68%
    03:00 +5°C° 0 mm 16 m/s 743 mmHg 70%
    04:00 +5°C° 0 mm 16 m/s 744 mmHg 71%
    05:00 +5°C° 0 mm 15 m/s 745 mmHg 71%
    06:00 +6°C° 0 mm 15 m/s 747 mmHg 70%
    07:00 +6°C° 0 mm 15 m/s 748 mmHg 70%
    08:00 +6°C° 0 mm 14 m/s 749 mmHg 67%
    09:00 +8°C° 0 mm 13 m/s 750 mmHg 64%
    10:00 +9°C° 0 mm 12 m/s 752 mmHg 61%
    11:00 +11°C° 0 mm 11 m/s 752 mmHg 58%
    12:00 +11°C° 0 mm 10 m/s 753 mmHg 55%
    13:00 +12°C° 0 mm 9 m/s 753 mmHg 52%
    14:00 +12°C° 0 mm 8 m/s 754 mmHg 53%
    15:00 +12°C° 0 mm 7 m/s 755 mmHg 54%
    16:00 +13°C° 0 mm 6 m/s 755 mmHg 54%
    17:00 +12°C° 0 mm 5 m/s 756 mmHg 57%
    18:00 +11°C° 0 mm 4 m/s 757 mmHg 61%
    19:00 +10°C° 0 mm 3 m/s 757 mmHg 64%
    20:00 +10°C° 0 mm 2 m/s 758 mmHg 64%
    21:00 +10°C° 0 mm 2 m/s 758 mmHg 65%
    22:00 +10°C° 0 mm 2 m/s 759 mmHg 66%
    23:00 +10°C° 0 mm 2 m/s 759 mmHg 65%

    15 Décembre, Dimanche

    Heure Température Précipitation Vent Pression Humidité
    00:00 +9°C° 0 mm 2 m/s 759 mmHg 65%
    01:00 +9°C° 0 mm 2 m/s 759 mmHg 64%
    02:00 +10°C° 0 mm 3 m/s 759 mmHg 64%
    03:00 +10°C° 0 mm 3 m/s 759 mmHg 64%
    04:00 +10°C° 0 mm 4 m/s 759 mmHg 63%
    05:00 +11°C° 0 mm 4 m/s 759 mmHg 66%
    06:00 +11°C° 0 mm 4 m/s 760 mmHg 68%
    07:00 +12°C° 0 mm 5 m/s 760 mmHg 71%
    08:00 +12°C° 0 mm 5 m/s 760 mmHg 73%
    09:00 +13°C° 0 mm 5 m/s 761 mmHg 74%
    10:00 +14°C° 0 mm 5 m/s 761 mmHg 76%
    11:00 +14°C° 0 mm 5 m/s 761 mmHg 76%
    12:00 +14°C° 0 mm 5 m/s 761 mmHg 76%
    13:00 +14°C° 0 mm 5 m/s 761 mmHg 76%
    14:00 +14°C° 0.1 mm 4 m/s 762 mmHg 76%
    15:00 +14°C° 0.1 mm 4 m/s 762 mmHg 76%
    16:00 +14°C° 0.1 mm 3 m/s 762 mmHg 76%
    17:00 +14°C° 0 mm 3 m/s 762 mmHg 77%
    18:00 +14°C° 0 mm 3 m/s 763 mmHg 77%
    19:00 +13°C° 0 mm 3 m/s 763 mmHg 78%
    20:00 +13°C° 0 mm 3 m/s 763 mmHg 78%
    21:00 +13°C° 0 mm 3 m/s 763 mmHg 79%
    22:00 +13°C° 0 mm 4 m/s 764 mmHg 80%
    23:00 +12°C° 0 mm 4 m/s 764 mmHg 79%

    16 Décembre, Lundi

    Heure Température Précipitation Vent Pression Humidité
    00:00 +12°C° 0 mm 4 m/s 764 mmHg 79%
    01:00 +12°C° 0 mm 4 m/s 764 mmHg 78%
    02:00 +12°C° 0 mm 4 m/s 764 mmHg 79%
    03:00 +12°C° 0 mm 5 m/s 764 mmHg 79%
    04:00 +10°C° 0 mm 5 m/s 764 mmHg 80%
    05:00 +12°C° 0 mm 5 m/s 764 mmHg 81%
    06:00 +11°C° 0 mm 6 m/s 764 mmHg 81%
    07:00 +11°C° 0 mm 6 m/s 764 mmHg 82%
    08:00 +11°C° 0 mm 6 m/s 764 mmHg 80%
    09:00 +12°C° 0 mm 7 m/s 764 mmHg 77%
    10:00 +14°C° 0 mm 7 m/s 764 mmHg 75%
    11:00 +15°C° 0 mm 7 m/s 764 mmHg 75%
    12:00 +15°C° 0 mm 7 m/s 764 mmHg 75%
    13:00 +16°C° 0 mm 7 m/s 763 mmHg 74%
    14:00 +16°C° 0 mm 7 m/s 763 mmHg 75%
    15:00 +15°C° 0 mm 7 m/s 763 mmHg 76%
    16:00 +15°C° 0 mm 7 m/s 763 mmHg 77%
    17:00 +15°C° 0.1 mm 7 m/s 763 mmHg 78%
    18:00 +14°C° 0.1 mm 7 m/s 763 mmHg 78%
    19:00 +13°C° 0.1 mm 8 m/s 762 mmHg 79%
    20:00 +13°C° 0.1 mm 8 m/s 762 mmHg 79%
    21:00 +13°C° 0.1 mm 8 m/s 762 mmHg 79%
    22:00 +13°C° 0.1 mm 9 m/s 762 mmHg 80%
    23:00 +13°C° 0 mm 9 m/s 762 mmHg 79%
    Voir plus